[[{"header":{"parameterUnit":"m.s-1","parameterCategory":1,"la1":30.2991,"la2":30.254,"lo1":-89.0895,"lo2":-89.0444,"dy":0.0017,"dx":0.0017,"nx":28,"ny":28,"refTime":"2024-03-08T03:00:00:Z","depth":0,"parameterNumber":2,"parameterNumberName":"U-component_of_WINDS"},"data":[0,0,0,0,0,0,0,0,0,0,0,0,0,0,0,0,0,0,0,0,0,0,0,0,0,0,0,0,0,0,0,0,0,0,0,0,0,0,0,0,0,0,0,0,0,0,0,0,0,0,0,0,0,0,0,0,0,0,2.046,2.046,0,2.0414,2.0414,2.0413,2.0356,2.0355,2.0354,2.0354,2.0309,2.0309,2.0309,0,0,0,0,0,0,0,0,0,0,0,0,0,2.0502,2.0502,2.046,2.046,2.0459,2.0414,2.0414,2.0413,2.0356,2.0355,2.0354,2.0353,2.0309,2.0309,2.0309,0,0,0,0,0,0,0,0,0,0,0,0,0,2.0473,2.0501,2.046,2.0425,2.0422,2.0414,2.0414,2.0413,2.0357,2.0355,2.0354,2.0353,2.031,2.0309,2.0309,2.0333,0,0,2.0307,2.0307,0,0,0,0,0,0,0,0,2.0475,2.0471,2.0431,2.0428,2.0424,2.0389,2.0412,2.0386,2.0357,2.0382,2.0354,2.0352,2.0337,2.0334,2.0329,2.0331,2.0329,2.0307,2.0307,2.0306,2.0306,0,0,0,0,0,0,0,2.0477,2.0473,2.0442,2.0431,2.0426,2.0413,2.0407,2.0407,2.0368,2.0379,2.0375,2.037,2.0335,2.0329,2.0327,2.0328,2.0307,2.0307,2.0306,2.0306,2.0347,2.0349,0,0,0,0,0,0,2.0484,2.0475,2.0444,2.0441,2.0446,2.0413,2.0407,2.0402,2.0367,2.0361,2.0371,2.0368,2.0331,2.0328,2.0326,2.0352,2.0306,2.0306,2.0306,2.0346,2.0348,2.0349,0,0,0,0,0,0,2.0485,2.0481,2.0445,2.0457,2.0451,2.0414,2.0409,2.0402,2.0396,2.0361,2.0355,2.0373,2.033,2.0326,2.0331,2.0349,2.0306,2.0305,2.0344,2.0347,2.0349,2.0404,0,0,0,0,0,0,2.0486,2.0482,2.049,2.0457,2.0451,2.0451,2.041,2.0402,2.0395,2.039,2.0361,2.0355,2.0328,2.0332,2.0331,2.0348,2.0305,2.0343,2.0345,2.0348,2.04,2.0408,2.0414,0,0,0,0,0,2.0488,2.0508,2.0491,2.0487,2.046,2.0452,2.0449,2.0417,2.0397,2.0405,2.0383,2.0356,2.0348,2.0333,2.0331,2.0348,2.0341,2.0345,2.0348,2.0397,2.0406,2.0414,0,0,0,0,0,0,2.0545,2.0503,2.0484,2.0494,2.0477,2.0443,2.0452,2.0427,2.0417,2.0412,2.0375,2.0369,2.0378,2.0364,2.0348,2.037,2.0341,2.0343,2.0379,2.0387,2.0394,2.0398,2.0304,0,0,0,0,0,2.0559,2.0555,2.0519,2.0532,2.0524,2.049,2.0485,2.0462,2.0444,2.0436,2.0415,2.0398,2.0392,2.0389,2.0381,2.0398,2.0391,2.0409,2.0416,2.0421,2.0425,2.0433,2.044,2.036,2.036,2.036,0,0,2.0587,2.0564,2.0564,2.0542,2.0527,2.0525,2.0484,2.0484,2.0482,2.0437,2.044,2.0423,2.0403,2.0414,2.0418,2.0402,2.0445,2.0426,2.043,2.043,2.0437,2.0445,2.0451,2.0362,2.0361,2.0361,0,0,2.0638,2.062,2.0628,2.0613,2.0589,2.0566,2.0569,2.0538,2.0525,2.0527,2.0493,2.0491,2.0481,2.0468,2.046,2.0506,2.0481,2.0505,2.0541,2.0549,2.0555,2.0561,2.0578,2.0584,2.0508,2.0508,2.0508,0,2.0677,2.0671,2.0636,2.0637,2.0629,2.0587,2.0596,2.0583,2.0559,2.0555,2.0537,2.0524,2.0507,2.0515,2.0526,2.0521,2.0522,2.0508,2.0557,2.0562,2.0567,2.0583,2.0589,2.0511,2.0511,2.051,2.051,0,2.072,2.0717,2.0727,2.0703,2.0696,2.0701,2.0668,2.0665,2.0643,2.0622,2.0625,2.0604,2.0591,2.0591,2.057,2.0596,2.0587,2.0564,2.0534,2.0578,2.0592,2.0598,2.0515,2.0514,2.0513,2.0513,0,0,2.0806,2.0762,2.0767,2.0756,2.0726,2.0724,2.0728,2.0714,2.0713,2.0698,2.07,2.0693,2.0671,2.0662,2.0639,2.0646,2.0685,2.0623,2.0621,2.0635,2.0713,2.0731,2.0738,2.0668,2.0669,2.067,2.0715,0,2.0851,2.0854,2.0823,2.0835,2.0832,2.0792,2.0795,2.0778,2.0759,2.0754,2.0733,2.0729,2.0701,2.0695,2.0701,2.0679,2.07,2.0675,2.0671,2.0671,2.0678,2.0745,2.0764,2.0807,2.072,2.0721,2.0722,0,2.0905,2.0892,2.0903,2.0874,2.0871,2.0875,2.086,2.0856,2.0836,2.0822,2.0812,2.0785,2.0787,2.0759,2.0762,2.0746,2.0742,2.0731,2.0732,2.0731,2.0699,2.0746,2.0821,2.0827,2.073,2.0729,2.0729,0,2.0967,2.0952,2.0957,2.0949,2.0914,2.0918,2.0904,2.0882,2.0877,2.0864,2.086,2.0849,2.0843,2.0835,2.0806,2.0787,2.0813,2.0781,2.0802,2.0803,2.0809,2.0809,2.0884,2.0806,2.0806,2.0806,2.0806,0,2.1021,2.103,2.0984,2.0987,2.0996,2.096,2.097,2.0952,2.0934,2.0934,2.0899,2.0899,2.0861,2.0858,2.0835,2.0842,2.0839,2.0828,2.0822,2.0832,2.0833,2.0829,2.0825,2.0808,2.0808,2.0807,2.0807,0,2.1092,2.1061,2.1064,2.1031,2.1023,2.1031,2.1003,2.1005,2.0984,2.0984,2.0982,2.0949,2.0943,2.0913,2.0901,2.0886,2.09,2.0888,2.0907,2.0903,2.0925,2.0924,2.1,2.1009,2.0926,2.0927,2.0927,0,2.1129,2.1134,2.1102,2.1099,2.1086,2.1081,2.1075,2.104,2.1035,2.1013,2.1018,2.1009,2.1,2.0993,2.0969,2.0959,2.0947,2.0974,2.0945,2.0954,2.0948,2.0948,2.0948,2.0981,2.0982,2.0983,2.0983,0,2.1198,2.1182,2.1174,2.116,2.1154,2.1142,2.1127,2.1127,2.1089,2.1085,2.1078,2.1071,2.1058,2.105,2.1036,2.1023,2.0997,2.0993,2.0997,2.1007,2.1017,2.1012,2.0924,2.0991,2.099,2.099,2.0989,2.0989,2.1252,2.1256,2.1233,2.1225,2.1211,2.1199,2.1199,2.1177,2.1171,2.1157,2.1137,2.1133,2.1114,2.1092,2.1081,2.1078,2.1063,2.1069,2.1071,2.1073,2.1078,2.1018,2.1075,2.1075,2.1075,2.1075,2.1074,0,2.132,2.1303,2.1296,2.1277,2.1271,2.1247,2.123,2.1227,2.1223,2.1207,2.1199,2.1192,2.1184,2.1158,2.1148,2.1151,2.1139,2.1149,2.1149,2.1146,2.1092,2.1089,2.1159,2.1159,2.1159,2.1159,2.1159,2.1159,2.1354,2.1358,2.134,2.1338,2.1321,2.1316,2.1309,2.1298,2.1284,2.1277,2.127,2.1254,2.1234,2.1222,2.1214,2.1207,2.1205,2.122,2.1209,2.1158,2.115,2.1142,2.114,2.1219,2.122,2.1264,2.1264,2.1264]},{"header":{"parameterUnit":"m.s-1","parameterCategory":1,"la1":30.2991,"la2":30.254,"lo1":-89.0895,"lo2":-89.0444,"dy":0.0017,"dx":0.0017,"nx":28,"ny":28,"refTime":"2024-03-08T03:00:00:Z","depth":0,"parameterNumber":3,"parameterNumberName":"V-component_of_WINDS"},"data":[0,0,0,0,0,0,0,0,0,0,0,0,0,0,0,0,0,0,0,0,0,0,0,0,0,0,0,0,0,0,0,0,0,0,0,0,0,0,0,0,0,0,0,0,0,0,0,0,0,0,0,0,0,0,0,0,0,0,4.994,4.994,0,4.9963,4.9963,4.9963,4.9939,4.9938,4.9937,4.9936,4.9957,4.9959,4.996,0,0,0,0,0,0,0,0,0,0,0,0,0,4.9873,4.9875,4.994,4.994,4.9941,4.9963,4.9963,4.9963,4.9939,4.9938,4.9937,4.9936,4.9957,4.9958,4.996,0,0,0,0,0,0,0,0,0,0,0,0,0,4.99,4.9875,4.994,4.9931,4.9931,4.9963,4.9963,4.9963,4.994,4.9938,4.9937,4.9936,4.9956,4.9958,4.996,5.0001,0,0,4.9967,4.9968,0,0,0,0,0,0,0,0,4.9898,4.9902,4.9932,4.9932,4.9931,4.9947,4.9947,4.9976,4.994,4.9936,4.9936,4.9935,4.9955,4.9957,4.9964,5.0002,5.0003,4.9967,4.9968,4.9969,4.997,0,0,0,0,0,0,0,4.9897,4.9901,4.9949,4.9933,4.9932,4.9926,4.9928,4.9953,4.9953,4.9936,4.9935,4.9938,4.9954,4.9962,4.9964,5.0003,4.9967,4.9969,4.997,4.9971,5.0077,5.0078,0,0,0,0,0,0,4.9896,4.99,4.9948,4.995,4.9911,4.9928,4.993,4.9943,4.9953,4.9953,4.9939,4.9937,4.9959,4.9962,4.9965,5.0015,4.9969,4.9971,4.9972,5.0075,5.0077,5.0079,0,0,0,0,0,0,4.9895,4.9901,4.9947,4.9924,4.993,4.9931,4.9945,4.9944,4.9952,4.9955,4.9954,4.9947,4.9958,4.9962,4.9993,5.0015,4.9972,4.9974,5.0074,5.0076,5.0078,5.0113,0,0,0,0,0,0,4.9893,4.99,4.9916,4.9925,4.9931,4.9975,4.9946,4.9946,4.9956,4.9954,4.9962,4.9962,4.9957,4.999,4.9995,5.0017,4.9976,5.0072,5.0075,5.0077,5.011,5.0116,5.0122,0,0,0,0,0,4.9891,4.9924,4.9917,4.9923,4.9951,4.9977,4.998,4.9975,4.9958,4.9974,4.9976,4.9962,5.0011,4.9993,4.9999,5.0022,5.007,5.0074,5.0077,5.0107,5.0115,5.0122,0,0,0,0,0,0,4.9917,4.9925,4.9917,4.9955,4.9966,4.9973,4.9992,4.9983,4.9997,4.9994,4.9986,4.9988,5.0021,5.0024,5.0003,5.0062,5.0038,5.0043,5.0059,5.0066,5.0072,5.0071,4.9978,0,0,0,0,0,4.9927,4.9948,4.9954,4.9986,4.9992,4.9992,5.0002,4.9997,5.0007,5.0011,5.0015,5.0025,5.0043,5.0054,5.0071,5.011,5.0112,5.0129,5.0134,5.0139,5.0144,5.0166,5.0174,5.009,5.009,5.009,0,0,4.9948,4.9956,4.9969,4.9992,4.9999,5.0021,4.9995,5.0019,5.0034,5.0015,5.0045,5.0048,5.0058,5.0093,5.0109,5.0097,5.0167,5.0144,5.0147,5.0149,5.017,5.0178,5.0185,5.0093,5.0092,5.0092,0,0,4.9999,5.0006,5.0035,5.0043,5.0055,5.0055,5.0061,5.007,5.0072,5.0102,5.0088,5.0106,5.0137,5.0145,5.0153,5.0207,5.0196,5.0213,5.0244,5.0265,5.0272,5.0278,5.0298,5.0306,5.0217,5.0217,5.0217,0,5.0023,5.0056,5.005,5.0075,5.0086,5.007,5.0099,5.0107,5.0123,5.0131,5.0117,5.0156,5.0162,5.02,5.0213,5.022,5.0228,5.0212,5.0272,5.0277,5.0283,5.0302,5.031,5.0219,5.0219,5.0219,5.0219,0,5.0086,5.0109,5.013,5.0149,5.0161,5.0188,5.0186,5.02,5.0194,5.0194,5.0225,5.0232,5.025,5.0258,5.0252,5.0295,5.0288,5.0273,5.0249,5.0293,5.0311,5.0318,5.0222,5.0221,5.0221,5.022,0,0,5.0153,5.0169,5.0177,5.0186,5.0198,5.0215,5.0241,5.026,5.0272,5.0284,5.0306,5.0333,5.032,5.0329,5.0323,5.0342,5.0386,5.0325,5.0325,5.0337,5.0436,5.0448,5.0457,5.0378,5.038,5.0381,5.0436,0,5.0205,5.0252,5.0248,5.0291,5.0313,5.0298,5.0321,5.0331,5.0333,5.035,5.0351,5.0371,5.0352,5.0357,5.0375,5.0377,5.0406,5.0373,5.0399,5.04,5.0398,5.0466,5.0479,5.053,5.0443,5.0444,5.0445,0,5.0271,5.0287,5.0334,5.0345,5.0353,5.0374,5.0391,5.0409,5.042,5.0419,5.043,5.0422,5.0448,5.0423,5.0458,5.0436,5.0446,5.0449,5.0451,5.0454,5.0426,5.0472,5.0546,5.0555,5.0456,5.0455,5.0454,0,5.0317,5.035,5.0383,5.039,5.0403,5.0418,5.0424,5.0434,5.0446,5.046,5.0468,5.0485,5.0495,5.0508,5.0504,5.0486,5.0542,5.0516,5.0542,5.0543,5.0556,5.0555,5.0634,5.056,5.056,5.056,5.056,0,5.0376,5.0405,5.0404,5.0424,5.0457,5.0451,5.0483,5.0487,5.0496,5.0516,5.0504,5.0523,5.0517,5.0535,5.0532,5.0563,5.0567,5.0568,5.0567,5.057,5.057,5.0577,5.0574,5.0562,5.0562,5.0561,5.0561,0,5.0433,5.0433,5.0468,5.0478,5.0481,5.0505,5.0513,5.0532,5.0532,5.0558,5.0564,5.0565,5.0586,5.0584,5.0607,5.0605,5.0644,5.0638,5.0641,5.064,5.0668,5.0666,5.0755,5.0767,5.0684,5.0685,5.0686,0,5.0471,5.0494,5.0506,5.052,5.0527,5.0549,5.0561,5.0557,5.057,5.0585,5.0602,5.0623,5.0639,5.0674,5.0677,5.0695,5.069,5.072,5.0693,5.0695,5.0692,5.0691,5.0694,5.0726,5.0727,5.0727,5.0728,0,5.0539,5.0538,5.0557,5.0577,5.0593,5.0608,5.0621,5.0632,5.0629,5.0645,5.0668,5.068,5.0705,5.0726,5.0744,5.0749,5.0738,5.0737,5.0744,5.0748,5.0749,5.075,5.0657,5.0735,5.0734,5.0733,5.0733,5.0733,5.0588,5.0608,5.0621,5.0643,5.0653,5.0666,5.0685,5.0689,5.0708,5.0729,5.0724,5.075,5.0761,5.0784,5.0791,5.081,5.0799,5.081,5.0813,5.0816,5.082,5.0745,5.0813,5.0813,5.0813,5.0813,5.0813,0,5.0656,5.0664,5.0685,5.0705,5.0722,5.0712,5.0726,5.0741,5.0765,5.0776,5.0793,5.0819,5.084,5.0844,5.0864,5.0879,5.0874,5.0884,5.0884,5.0885,5.0828,5.082,5.0887,5.0887,5.0887,5.0887,5.0887,5.0887,5.0694,5.0728,5.0729,5.0768,5.0775,5.0801,5.081,5.0822,5.0832,5.0863,5.088,5.0883,5.0892,5.0912,5.093,5.0931,5.0939,5.0951,5.095,5.0896,5.0889,5.0882,5.0875,5.0953,5.0953,5.1006,5.1007,5.1007]}]]